QPF
0.00 0.00 0.00 0.00 0.00 0.00 0.00 0.00 0.00 0.01 0.00 0.00 0.00 0.00 0.00 0.00 0.00 0.00 0.00 0.00 0.00 0.00 0.00 0.00 0.00 0.00 0.00 0.00 0.00 0.00 0.00 0.00 0.00 0.00 0.00 0.00 0.00 0.00
0.00 0.00 0.00 0.00 0.00 0.00 0.00 0.00 0.00 0.00 0.00 0.00 0.00 0.00 0.00 0.00 0.00 0.00 0.00 0.00 0.00 0.00 0.00 0.00 0.00 0.00 0.00 0.00 0.00 0.00 0.00 0.00 0.00 0.00 0.00 0.00 0.00 0.00
0.01 0.00 0.00 0.00 0.00 0.00 0.00 0.00 0.00 0.00 0.00 0.00 0.00 0.00 0.00 0.00 0.00 0.00 0.00 0.00 0.00 0.00 0.00 0.00 0.00 0.00 0.00 0.00 0.00 0.00 0.00 0.00 0.00 0.00 0.00 0.00 0.00 0.00
0.01 0.02 0.00 0.00 0.00 0.00 0.00 0.00 0.00 0.00 0.00 0.00 0.00 0.00 0.00 0.00 0.00 0.00 0.00 0.00 0.00 0.00 0.00 0.00 0.00 0.00 0.00 0.00 0.00 0.00 0.00 0.00 0.00 0.00 0.00 0.00 0.00 0.00
0.00 0.00 0.00 0.00 0.00 0.00 0.00 0.00 0.00 0.00 0.00 0.00 0.00 0.00 0.00 0.00 0.00 0.00 0.00 0.00 0.00 0.00 0.00 0.00 0.00 0.00 0.00 0.00 0.00 0.00 0.00 0.00 0.00 0.00 0.00 0.00 0.00 0.00
0.00 0.00 0.00 0.00 0.00 0.00 0.00 0.00 0.00 0.00 0.00 0.00 0.00 0.00 0.00 0.00 0.00 0.00 0.00 0.00 0.00 0.00 0.00 0.00 0.00 0.00 0.00 0.00 0.00 0.00 0.00 0.00 0.00 0.00 0.00 0.00 0.00 0.00
0.00 0.00 0.00 0.00 0.00 0.00 0.00 0.00 0.00 0.00 0.00 0.00 0.00 0.00 0.00 0.00 0.00 0.00 0.00 0.00 0.00 0.00 0.00 0.00 0.00 0.00 0.00 0.00 0.00 0.00 0.00 0.00 0.00 0.00 0.00 0.00 0.00 0.00
0.00 0.00 0.00 0.00 0.00 0.00 0.00 0.00 0.00 0.00 0.00 0.00 0.00 0.00 0.00 0.00 0.00 0.00 0.00 0.00 0.00 0.00 0.00 0.00 0.00 0.00 0.00 0.00 0.00 0.00 0.00 0.00 0.00 0.00 0.00 0.00 0.00 0.00
0.00 0.00 0.00 0.00 0.00 0.00 0.00 0.00 0.00 0.00 0.00 0.00 0.00 0.00 0.00 0.00 0.00 0.00 0.00 0.00 0.00 0.00 0.00 0.00 0.00 0.00 0.00 0.00 0.00 0.00 0.00 0.00 0.00 0.00 0.00 0.00 0.00 0.00
0.00 0.00 0.00 0.00 0.00 0.00 0.00 0.00 0.00 0.00 0.00 0.00 0.00 0.00 0.00 0.00 0.00 0.00 0.00 0.00 0.00 0.00 0.00 0.00 0.00 0.00 0.00 0.00 0.00 0.00 0.00 0.00 0.00 0.00 0.00 0.00 0.00 0.00
0.00 0.00 0.00 0.00 0.00 0.00 0.00 0.00 0.00 0.00 0.00 0.00 0.00 0.00 0.00 0.00 0.00 0.00 0.00 0.00 0.00 0.00 0.00 0.00 0.00 0.00 0.00 0.00 0.00 0.00 0.00 0.00 0.00 0.00 0.00 0.00 0.00 0.00
0.00 0.00 0.00 0.00 0.00 0.00 0.00 0.00 0.00 0.00 0.00 0.00 0.00 0.00 0.00 0.00 0.00 0.00 0.00 0.00 0.00 0.00 0.00 0.00 0.00 0.00 0.00 0.00 0.00 0.00 0.00 0.00 0.00 0.00 0.00 0.00 0.00 0.00
0.00 0.00 0.00 0.00 0.00 0.00 0.00 0.00 0.00 0.00 0.00 0.00 0.00 0.00 0.00 0.00 0.00 0.00 0.00 0.00 0.00 0.00 0.00 0.00 0.00 0.00 0.00 0.00 0.00 0.00 0.00 0.00 0.00 0.00 0.00 0.00 0.00 0.00
0.00 0.00 0.00 0.00 0.00 0.00 0.00 0.00 0.00 0.00 0.00 0.00 0.00 0.00 0.00 0.00 0.00 0.00 0.00 0.00 0.00 0.00 0.00 0.00 0.00 0.00 0.00 0.00 0.00 0.00 0.00 0.00 0.00 0.00 0.00 0.00 0.00 0.00
0.00 0.00 0.00 0.00 0.00 0.00 0.00 0.00 0.00 0.00 0.00 0.00 0.00 0.00 0.00 0.00 0.00 0.00 0.00 0.00 0.00 0.00 0.00 0.00 0.00 0.00 0.00 0.00 0.00 0.00 0.00 0.00 0.00 0.00 0.00 0.00 0.00 0.00
0.00 0.00 0.00 0.00 0.00 0.00 0.00 0.00 0.00 0.00 0.00 0.00 0.00 0.00 0.00 0.00 0.00 0.00 0.00 0.00 0.00 0.00 0.00 0.00 0.00 0.00 0.00 0.00 0.00 0.00 0.00 0.00 0.00 0.00 0.00 0.00 0.00 0.00
0.00 0.00 0.00 0.00 0.00 0.00 0.00 0.00 0.00 0.00 0.00 0.00 0.00 0.00 0.00 0.00 0.00 0.00 0.00 0.00 0.00 0.00 0.00 0.00 0.00 0.00 0.00 0.00 0.00 0.00 0.00 0.00 0.00 0.00 0.00 0.00 0.00 0.00
0.00 0.00 0.00 0.00 0.00 0.00 0.00 0.00 0.00 0.00 0.00 0.00 0.00 0.00 0.00 0.00 0.00 0.00 0.00 0.00 0.00 0.00 0.00 0.00 0.00 0.00 0.00 0.00 0.00 0.00 0.00 0.00 0.00 0.00 0.00 0.00 0.00 0.00
0.00 0.00 0.00 0.00 0.00 0.00 0.00 0.00 0.00 0.00 0.00 0.00 0.00 0.00 0.00 0.00 0.00 0.00 0.00 0.00 0.00 0.00 0.00 0.00 0.00 0.00 0.00 0.00 0.00 0.00 0.00 0.00 0.00 0.00 0.00 0.00 0.00 0.00
0.00 0.00 0.00 0.00 0.00 0.00 0.00 0.00 0.00 0.00 0.00 0.00 0.00 0.00 0.00 0.00 0.00 0.00 0.00 0.00 0.00 0.00 0.00 0.00 0.00 0.00 0.00 0.00 0.00 0.00 0.00 0.00 0.00 0.00 0.00 0.00 0.00 0.00
0.00 0.00 0.00 0.00 0.00 0.00 0.00 0.00 0.00 0.00 0.00 0.00 0.00 0.00 0.00 0.00 0.00 0.00 0.00 0.00 0.00 0.00 0.00 0.00 0.00 0.00 0.00 0.00 0.01 0.00 0.00 0.00 0.00 0.00 0.00 0.01 0.00 0.00
0.00 0.00 0.00 0.00 0.00 0.00 0.00 0.00 0.00 0.00 0.00 0.00 0.00 0.00 0.00 0.00 0.00 0.00 0.00 0.00 0.00 0.00 0.00 0.00 0.00 0.00 0.00 0.00 0.00 0.00 0.00 0.00 0.00 0.00 0.00 0.01 0.01 0.01
0.00 0.00 0.00 0.00 0.00 0.00 0.00 0.00 0.00 0.00 0.00 0.00 0.00 0.00 0.00 0.00 0.00 0.00 0.00 0.00 0.00 0.00 0.00 0.00 0.00 0.00 0.00 0.00 0.00 0.00 0.00 0.00 0.00 0.00 0.00 0.00 0.00 0.00
MSLP
1018.40 1018.62 1018.85 1019.14 1019.64 1019.97 1020.41 1020.78 1021.20 1021.73 1022.25 1023.25 1023.76 1024.32 1024.04 1024.10 1024.44 1024.07 1024.08 1024.26 1024.30 1024.60 1024.83 1024.80 1024.95 1025.02 1025.17 1025.47 1025.50 1025.51 1025.45 1025.41 1025.40 1025.37 1025.30 1025.14 1024.96 1024.73
1018.34 1018.53 1019.07 1019.58 1019.99 1020.27 1020.48 1020.77 1021.22 1021.57 1022.22 1023.18 1024.07 1024.53 1024.28 1024.38 1024.78 1024.42 1024.69 1024.75 1024.94 1025.01 1025.08 1025.06 1025.16 1025.32 1025.41 1025.53 1025.54 1025.50 1025.54 1025.54 1025.51 1025.46 1025.35 1025.16 1024.93 1024.76
1018.42 1018.75 1019.33 1019.79 1020.20 1020.68 1020.91 1020.82 1021.19 1021.60 1022.07 1023.78 1024.19 1024.68 1024.54 1024.26 1024.68 1024.74 1024.82 1024.66 1024.97 1025.28 1025.29 1025.28 1025.45 1025.57 1025.51 1025.45 1025.48 1025.55 1025.57 1025.58 1025.60 1025.51 1025.34 1025.17 1025.02 1024.90
1018.90 1019.11 1019.68 1020.21 1020.50 1021.12 1021.33 1021.45 1021.38 1021.82 1021.90 1023.04 1024.12 1024.43 1024.42 1024.57 1024.73 1024.73 1024.97 1025.00 1025.13 1025.51 1025.40 1025.47 1025.56 1025.64 1025.58 1025.57 1025.63 1025.65 1025.61 1025.58 1025.61 1025.62 1025.54 1025.32 1025.21 1025.13
1019.17 1019.74 1019.85 1020.46 1020.94 1021.24 1021.54 1021.64 1021.88 1022.12 1022.19 1022.52 1023.51 1024.11 1024.41 1024.46 1024.72 1024.78 1025.13 1025.14 1025.32 1025.50 1025.69 1025.75 1025.72 1025.64 1025.50 1025.53 1025.60 1025.57 1025.52 1025.55 1025.58 1025.53 1025.43 1025.30 1025.21 1025.06
1019.72 1020.07 1020.25 1020.66 1020.95 1021.51 1021.67 1021.76 1022.05 1022.10 1022.49 1022.83 1023.35 1023.82 1024.11 1024.64 1024.81 1024.60 1024.67 1024.66 1024.72 1025.30 1025.51 1025.79 1025.67 1025.44 1025.46 1025.44 1025.47 1025.50 1025.49 1025.54 1025.46 1025.34 1025.24 1025.11 1025.00 1024.91
1020.37 1020.50 1020.78 1021.29 1021.69 1021.88 1021.93 1021.90 1021.80 1022.19 1022.50 1022.95 1023.34 1023.94 1024.12 1024.31 1024.21 1024.64 1024.63 1024.72 1024.82 1025.50 1025.25 1024.99 1025.04 1024.90 1024.86 1025.09 1025.25 1025.31 1025.40 1025.36 1025.21 1025.08 1024.97 1024.88 1024.71 1024.62
1021.01 1021.12 1021.32 1021.72 1021.98 1022.39 1022.52 1022.36 1022.40 1022.59 1022.83 1023.03 1023.58 1023.62 1023.92 1024.15 1024.57 1024.71 1024.87 1024.98 1024.82 1025.64 1025.45 1024.79 1024.97 1024.63 1024.65 1024.70 1024.97 1025.20 1025.10 1025.02 1025.00 1024.97 1024.80 1024.75 1024.71 1024.58
1021.58 1021.68 1021.95 1022.04 1021.92 1022.53 1022.89 1023.09 1023.14 1023.40 1023.30 1023.41 1023.42 1023.78 1024.14 1024.28 1024.83 1025.30 1025.38 1025.35 1025.39 1025.43 1025.69 1024.76 1024.83 1024.48 1024.41 1024.62 1024.92 1025.01 1024.78 1024.65 1024.64 1024.70 1024.78 1024.70 1024.54 1024.32
1021.89 1022.21 1022.20 1022.40 1022.73 1022.90 1023.34 1023.64 1023.73 1023.84 1023.89 1023.95 1023.94 1024.28 1024.67 1024.90 1025.31 1025.67 1025.67 1025.66 1025.65 1025.62 1025.86 1025.22 1024.87 1024.53 1024.33 1024.47 1024.98 1024.87 1024.51 1024.25 1024.34 1024.58 1024.53 1024.38 1024.24 1024.01
1022.40 1022.53 1022.53 1022.80 1023.05 1023.46 1023.62 1023.77 1023.78 1024.17 1024.56 1024.75 1024.92 1025.11 1025.32 1025.48 1025.56 1025.69 1025.63 1025.64 1025.34 1025.42 1025.84 1025.81 1025.21 1025.11 1024.70 1024.48 1024.47 1024.83 1024.69 1024.60 1024.52 1024.40 1024.17 1023.94 1023.77 1023.52
1022.66 1022.92 1022.93 1022.92 1023.45 1023.82 1023.60 1023.70 1023.79 1024.17 1024.65 1025.02 1025.17 1025.49 1025.48 1025.67 1025.81 1025.77 1025.84 1025.88 1025.78 1025.70 1026.23 1026.40 1026.00 1025.81 1024.96 1024.54 1024.53 1024.41 1024.19 1024.09 1024.10 1023.94 1023.66 1023.47 1023.37 1023.09
1022.66 1022.90 1023.11 1023.35 1023.59 1023.90 1023.87 1023.85 1024.03 1024.35 1024.84 1024.98 1025.18 1025.38 1025.43 1025.62 1025.82 1025.95 1026.15 1026.37 1026.42 1026.30 1026.32 1026.75 1026.56 1026.35 1025.90 1025.23 1024.56 1024.30 1024.22 1023.87 1023.56 1023.39 1023.09 1022.97 1023.01 1022.93
1022.61 1022.96 1023.15 1023.54 1023.70 1023.85 1024.01 1024.13 1024.39 1024.69 1024.77 1025.00 1025.22 1025.34 1025.42 1025.61 1025.90 1026.02 1026.21 1026.47 1026.61 1026.81 1026.79 1027.03 1026.80 1026.58 1026.34 1025.89 1024.91 1024.23 1023.94 1023.74 1023.57 1023.24 1022.82 1022.53 1022.42 1022.26
1022.76 1022.99 1023.36 1023.53 1023.76 1023.84 1023.98 1024.18 1024.29 1024.58 1024.82 1025.00 1025.05 1025.25 1025.51 1025.64 1026.14 1026.36 1026.51 1026.56 1026.59 1026.55 1026.52 1026.59 1026.56 1026.42 1026.39 1025.92 1025.23 1024.60 1024.23 1023.32 1023.32 1023.16 1022.78 1022.44 1022.11 1021.79
1022.98 1023.13 1023.36 1023.51 1023.54 1023.85 1024.13 1024.20 1024.38 1024.51 1024.67 1024.76 1024.89 1025.10 1025.46 1025.87 1025.94 1026.09 1026.21 1026.23 1026.18 1025.93 1025.83 1026.12 1026.22 1026.17 1025.90 1025.62 1025.32 1024.47 1024.22 1023.84 1022.94 1022.83 1022.49 1022.07 1021.68 1021.28
1022.89 1023.15 1023.31 1023.45 1023.50 1023.72 1023.96 1024.08 1024.22 1024.39 1024.57 1024.68 1024.80 1024.95 1025.19 1025.40 1025.70 1025.85 1025.89 1025.92 1025.86 1025.62 1025.47 1025.40 1025.59 1025.69 1025.48 1025.32 1024.79 1023.85 1023.15 1022.76 1022.49 1022.21 1022.09 1021.40 1020.84 1020.49
1022.60 1022.64 1022.75 1022.84 1023.09 1023.27 1023.44 1023.58 1023.85 1024.07 1024.22 1024.39 1024.56 1024.68 1024.80 1024.96 1025.14 1025.39 1025.54 1025.55 1025.46 1025.30 1025.17 1025.14 1025.20 1025.08 1024.42 1023.66 1023.63 1023.07 1022.69 1022.25 1021.98 1021.86 1021.70 1021.17 1019.93 1019.65
1021.97 1022.06 1022.15 1022.47 1022.66 1022.75 1022.93 1023.19 1023.43 1023.70 1023.97 1024.23 1024.32 1024.40 1024.53 1024.64 1024.76 1024.87 1025.00 1025.10 1025.03 1024.86 1024.64 1024.65 1024.78 1024.65 1024.07 1023.07 1022.39 1022.43 1022.42 1022.11 1021.80 1021.33 1021.00 1020.46 1019.70 1018.75
1021.23 1021.50 1021.79 1021.92 1022.07 1022.22 1022.53 1022.84 1023.09 1023.41 1023.77 1023.95 1024.08 1024.19 1024.30 1024.35 1024.34 1024.37 1024.39 1024.37 1024.35 1024.24 1024.12 1024.03 1023.92 1023.96 1023.79 1023.31 1022.87 1022.18 1022.26 1021.96 1021.52 1020.86 1020.22 1019.70 1019.15 1018.51
1020.60 1020.97 1021.12 1021.22 1021.59 1021.80 1021.98 1022.35 1022.67 1022.88 1023.18 1023.50 1023.68 1023.81 1023.87 1023.94 1023.83 1023.82 1023.80 1023.77 1023.85 1023.77 1023.43 1023.11 1023.02 1023.12 1023.34 1023.39 1022.71 1021.58 1020.97 1020.77 1020.78 1020.43 1019.79 1019.36 1018.55 1017.70
1019.86 1020.11 1020.36 1020.58 1020.88 1021.24 1021.40 1021.69 1022.03 1022.28 1022.55 1022.81 1023.01 1023.19 1023.34 1023.41 1023.33 1023.31 1023.25 1023.16 1023.13 1023.12 1022.96 1022.82 1022.83 1022.90 1022.79 1022.55 1021.80 1021.14 1020.43 1019.81 1019.53 1019.25 1018.98 1018.78 1018.33 1017.14
1018.90 1019.18 1019.40 1019.72 1020.01 1020.36 1020.67 1020.89 1021.15 1021.30 1021.59 1021.94 1022.18 1022.37 1022.61 1022.74 1022.80 1022.77 1022.70 1022.63 1022.68 1022.73 1022.67 1022.47 1022.37 1022.21 1021.89 1021.60 1021.13 1020.52 1019.96 1019.31 1018.61 1017.97 1017.45 1017.15 1016.69 1016.22
Thickness
5629 5627 5624 5619 5612 5608 5602 5597 5591 5589 5586 5567 5560 5551 5552 5550 5543 5542 5539 5534 5530 5523 5518 5515 5510 5507 5502 5497 5493 5490 5488 5484 5481 5478 5476 5475 5474 5474
5620 5618 5612 5606 5600 5596 5592 5588 5581 5579 5578 5560 5548 5543 5543 5541 5532 5531 5527 5523 5517 5512 5508 5505 5500 5496 5493 5489 5485 5482 5478 5475 5471 5469 5467 5466 5466 5465
5610 5606 5600 5595 5590 5584 5579 5579 5573 5568 5563 5543 5539 5534 5534 5532 5523 5519 5516 5514 5507 5503 5499 5495 5491 5487 5484 5481 5477 5473 5469 5465 5462 5459 5457 5456 5455 5454
5595 5593 5587 5581 5578 5570 5565 5563 5562 5556 5555 5542 5531 5528 5526 5521 5515 5511 5506 5503 5498 5493 5489 5486 5482 5478 5475 5472 5468 5463 5459 5455 5451 5448 5445 5445 5443 5442
5583 5576 5576 5569 5563 5559 5554 5552 5548 5544 5542 5540 5528 5522 5516 5513 5507 5503 5497 5494 5490 5486 5480 5476 5473 5470 5467 5463 5458 5454 5450 5445 5441 5437 5434 5433 5431 5431
5566 5563 5561 5557 5553 5546 5543 5541 5537 5535 5530 5527 5522 5516 5510 5502 5498 5497 5494 5490 5487 5479 5474 5469 5466 5463 5459 5454 5450 5444 5439 5434 5430 5426 5424 5422 5421 5420
5549 5548 5545 5539 5535 5532 5530 5530 5531 5526 5524 5518 5514 5506 5502 5498 5497 5489 5486 5482 5478 5469 5467 5464 5460 5457 5452 5446 5441 5435 5429 5423 5419 5415 5414 5412 5411 5410
5533 5532 5530 5525 5522 5518 5516 5517 5516 5514 5512 5510 5501 5501 5496 5491 5484 5480 5477 5473 5473 5460 5457 5458 5452 5449 5444 5438 5431 5424 5419 5413 5408 5404 5402 5401 5399 5398
5517 5516 5514 5513 5512 5507 5504 5502 5502 5499 5500 5497 5495 5491 5485 5481 5474 5466 5464 5461 5457 5453 5447 5450 5443 5440 5435 5427 5421 5415 5410 5405 5400 5395 5391 5389 5387 5387
5504 5501 5501 5500 5497 5495 5492 5490 5489 5488 5486 5484 5482 5477 5471 5467 5461 5455 5453 5450 5446 5442 5436 5436 5434 5430 5424 5417 5410 5405 5401 5397 5392 5386 5382 5380 5378 5376
5489 5487 5489 5487 5486 5484 5482 5482 5482 5477 5473 5470 5467 5463 5458 5455 5451 5448 5446 5443 5442 5436 5427 5422 5422 5416 5412 5407 5402 5395 5390 5385 5381 5378 5374 5372 5370 5368
5477 5476 5477 5478 5475 5473 5476 5475 5474 5470 5464 5460 5456 5451 5449 5445 5442 5439 5435 5432 5429 5425 5415 5408 5405 5400 5401 5396 5390 5386 5382 5378 5374 5371 5368 5365 5361 5359
5469 5469 5468 5467 5466 5465 5466 5467 5464 5460 5454 5452 5448 5444 5441 5437 5433 5429 5425 5419 5415 5410 5403 5395 5390 5385 5382 5380 5378 5374 5370 5368 5366 5363 5361 5357 5352 5348
5462 5461 5461 5459 5458 5458 5457 5456 5453 5449 5447 5444 5440 5437 5434 5430 5425 5420 5415 5409 5404 5397 5392 5384 5379 5373 5368 5363 5364 5362 5358 5356 5352 5350 5349 5346 5342 5338
5454 5454 5452 5451 5451 5450 5449 5447 5445 5442 5439 5436 5434 5430 5425 5421 5415 5410 5405 5400 5395 5389 5384 5377 5370 5365 5358 5354 5351 5346 5343 5343 5338 5335 5334 5332 5329 5327
5445 5445 5444 5445 5444 5443 5440 5438 5436 5435 5432 5429 5427 5423 5417 5412 5408 5403 5398 5392 5387 5384 5378 5370 5362 5355 5350 5345 5339 5335 5330 5327 5326 5321 5321 5319 5316 5315
5438 5437 5438 5437 5438 5436 5433 5432 5430 5427 5424 5422 5419 5415 5411 5407 5401 5395 5389 5384 5379 5374 5369 5364 5356 5348 5342 5335 5329 5327 5325 5319 5315 5309 5305 5307 5304 5304
5433 5435 5435 5435 5434 5432 5430 5428 5425 5422 5419 5415 5412 5409 5405 5401 5395 5388 5382 5376 5371 5366 5359 5353 5346 5340 5338 5334 5323 5317 5311 5308 5301 5293 5288 5289 5294 5290
5431 5432 5432 5430 5429 5428 5426 5423 5420 5416 5412 5408 5405 5402 5398 5393 5388 5383 5376 5370 5363 5357 5352 5344 5335 5328 5324 5324 5320 5303 5294 5287 5283 5278 5271 5272 5277 5278
5429 5428 5426 5425 5425 5423 5420 5417 5413 5409 5404 5401 5397 5394 5389 5385 5380 5376 5371 5366 5359 5351 5343 5337 5330 5320 5313 5309 5302 5292 5278 5273 5265 5260 5255 5254 5256 5260
5425 5423 5422 5422 5419 5417 5414 5410 5406 5403 5399 5394 5390 5386 5382 5377 5374 5369 5365 5359 5352 5345 5338 5332 5324 5314 5304 5294 5289 5286 5276 5264 5254 5244 5239 5236 5242 5249
5420 5419 5419 5417 5415 5412 5409 5405 5401 5397 5393 5389 5384 5380 5375 5370 5366 5362 5358 5353 5347 5339 5332 5323 5314 5304 5295 5288 5283 5278 5271 5260 5249 5241 5233 5229 5231 5242
5418 5416 5415 5413 5410 5408 5404 5401 5397 5394 5390 5384 5380 5375 5369 5364 5359 5355 5350 5345 5338 5330 5323 5315 5307 5298 5290 5284 5277 5272 5264 5257 5250 5243 5237 5233 5234 5237